Regional Weather Roundup
Issued by NWS Cleveland, OH

Home | Current Version | Previous Version | Text Only | Print | Product List | Glossary On
Versions: 1 2 3 4 5 6 7 8 9 10 11 12 13 14 15 16 17 18 19 20 21 22 23 24 25 26 27 28 29 30 31 32 33 34 35 36 37 38 39 40 41 42 43 44 45 46 47 48 49 50
000
ASUS41 KCLE 301512
RWRCLE
OHIO REGIONAL WEATHER ROUNDUP
NATIONAL WEATHER SERVICE WILMINGTON, OH
1100 AM EDT TUE AUG 30 2016

NOTE: "FAIR" INDICATES FEW OR NO CLOUDS BELOW 12,000 FEET WITH NO
SIGNIFICANT WEATHER AND/OR OBSTRUCTIONS TO VISIBILITY.

OHZ001>008-015>018-024>027-034-035-043-044-301600-
   NORTHWEST OHIO

CITY           SKY/WX    TMP DP  RH WIND       PRES   REMARKS
DEFIANCE       FAIR      78  64  61 W5        30.16F
FINDLAY        FAIR      78  64  61 CALM      30.16F
TOLEDO EXPRESS FAIR      76  64  66 CALM      30.16F
TOLEDO EXEC    FAIR      76  65  68 S5        30.17F
LIMA           FAIR      78  66  66 S3        30.17F
$$

OHZ009>014-019>023-028>033-038-089-301600-
   NORTHEAST OHIO

CITY           SKY/WX    TMP DP  RH WIND       PRES   REMARKS
CLE-HOPKINS    FAIR      80  56  43 CALM      30.20S
CLE-LAKEFRONT  FAIR      79  57  46 VRB3      30.17S
CUY CO. ARPT   NOT AVBL
LORAIN-ELYRIA  FAIR      75  60  59 MISG      30.18F
ASHTABULA      FAIR      76  64  66 SE5       30.20S
AKRON-CANTON   FAIR      78  53  41 CALM      30.19F
WOOSTER        FAIR      75  62  64 CALM      30.20S
MANSFIELD      FAIR      79  59  50 SE5       30.19F
YOUNGSTOWN     FAIR      75  60  59 CALM      30.19F
$$

OHZ042-051>053-060>062-070>072-077>081-301600-
  SOUTHWEST OHIO

CITY           SKY/WX    TMP DP  RH WIND       PRES   REMARKS
CINC-COVINGTON FAIR      81  69  67 E5        30.17S
CINC-LUNKEN    FAIR      80  71  74 CALM      30.16F
HAMILTON       FAIR      81  68  64 CALM      30.17F
DAYTON         FAIR      79  65  62 SE3       30.18F
WRIGHT-PAT AFB FAIR      80  63  56 S3        30.17F
DAYTON GENERAL FAIR      80  65  59 SE5       30.17F
WILMINGTON     FAIR      77  68  73 SE5       30.17F
$$

OHZ036-037-039>041-045>050-054>059-063>069-073>076-082>088-301600-
  CENTRAL AND SOUTHEAST OHIO

CITY           SKY/WX    TMP DP  RH WIND       PRES   REMARKS
COLUMBUS       FAIR      78  62  57 SE5       30.17S
OSU AIRPORT    FAIR      81  64  56 CALM      30.17F
BOLTON FIELD   SUNNY     77  64  65 S3        30.19S
RICKENBACK AFB FAIR      76  64  65 CALM      30.17F
NEWARK         FAIR      77  62  59 CALM      30.18S
MARION         FAIR      77  62  59 SE6       30.18F
LANCASTER      FAIR      80  65  59 VRB3      30.18S
ZANESVILLE     FAIR      77  62  59 CALM      30.19R
NEW PHILLY     FAIR      79  60  52 VRB3      30.19S
$$



USA.gov is the U.S. government's official web portal to all federal, state and local government web resources and services.